[[{"header":{"parameterUnit":"m.s-1","parameterCategory":1,"la1":30.2991,"la2":30.254,"lo1":-89.0895,"lo2":-89.0444,"dy":0.0017,"dx":0.0017,"nx":28,"ny":28,"refTime":"2025-01-07T03:00:00:Z","depth":0,"parameterNumber":2,"parameterNumberName":"U-component_of_WINDS"},"data":[0,0,0,0,0,0,0,0,0,0,0,0,0,0,0,0,0,0,0,0,0,0,0,0,0,0,0,0,0,0,0,0,0,0,0,0,0,0,0,0,0,0,0,0,0,0,0,0,0,0,0,0,0,0,0,0,0,0,0.8461,0.8461,0,0.8438,0.8438,0.8438,0.8429,0.8429,0.8429,0.8429,0.8403,0.8403,0.8402,0,0,0,0,0,0,0,0,0,0,0,0,0,0.8497,0.8497,0.8461,0.8461,0.8461,0.8438,0.8438,0.8438,0.8429,0.8429,0.8429,0.8429,0.8403,0.8403,0.8402,0,0,0,0,0,0,0,0,0,0,0,0,0,0.8479,0.8497,0.8462,0.8454,0.8453,0.8438,0.8438,0.8438,0.8429,0.8429,0.8429,0.8429,0.8404,0.8403,0.8402,0.8393,0,0,0.8398,0.8398,0,0,0,0,0,0,0,0,0.848,0.8477,0.8455,0.8454,0.8453,0.8436,0.8441,0.8422,0.8428,0.8438,0.8429,0.8429,0.8414,0.8412,0.8407,0.8392,0.839,0.8398,0.8397,0.8397,0.8397,0,0,0,0,0,0,0,0.8481,0.8478,0.8452,0.8455,0.8454,0.8451,0.8449,0.8438,0.8426,0.8437,0.8436,0.8434,0.8414,0.8409,0.8407,0.839,0.8398,0.8397,0.8396,0.8396,0.8367,0.8367,0,0,0,0,0,0,0.8484,0.8479,0.8453,0.8452,0.8467,0.845,0.8448,0.8442,0.8426,0.8423,0.8434,0.8433,0.841,0.8408,0.8406,0.8395,0.8397,0.8396,0.8395,0.8367,0.8367,0.8367,0,0,0,0,0,0,0.8485,0.8482,0.8454,0.8465,0.8462,0.845,0.8443,0.8441,0.8436,0.8423,0.8421,0.8431,0.841,0.8407,0.8396,0.8394,0.8395,0.8394,0.8367,0.8367,0.8367,0.8373,0,0,0,0,0,0,0.8486,0.8482,0.8478,0.8465,0.8461,0.8445,0.8443,0.8441,0.8434,0.8434,0.842,0.8418,0.841,0.8398,0.8395,0.8392,0.8394,0.8367,0.8367,0.8367,0.8373,0.8373,0.8373,0,0,0,0,0,0.8487,0.848,0.8478,0.8475,0.8457,0.8445,0.8442,0.8434,0.8434,0.8431,0.8423,0.8418,0.8395,0.8397,0.8394,0.8391,0.8367,0.8367,0.8367,0.8373,0.8373,0.8373,0,0,0,0,0,0,0.8493,0.8478,0.8476,0.8465,0.8456,0.8443,0.8438,0.8435,0.8425,0.8425,0.8415,0.8412,0.8402,0.8395,0.8398,0.8382,0.8381,0.838,0.8386,0.8386,0.8386,0.8388,0.8393,0,0,0,0,0,0.8493,0.8485,0.8473,0.8464,0.846,0.845,0.8445,0.844,0.843,0.8426,0.8417,0.8407,0.8398,0.8392,0.8382,0.8372,0.8369,0.8368,0.8368,0.8369,0.8368,0.8362,0.8362,0.8366,0.8366,0.8366,0,0,0.8492,0.8484,0.8479,0.8465,0.8458,0.845,0.8447,0.8438,0.8432,0.8424,0.8414,0.8407,0.8396,0.8385,0.838,0.8379,0.8366,0.8368,0.8368,0.8367,0.8362,0.8362,0.8361,0.8366,0.8366,0.8366,0,0,0.8488,0.8481,0.8473,0.8466,0.8455,0.8449,0.8447,0.8435,0.8431,0.842,0.8415,0.8407,0.8391,0.8383,0.8377,0.8372,0.8368,0.8369,0.8369,0.8364,0.8364,0.8364,0.8362,0.8361,0.8369,0.8369,0.8369,0,0.8489,0.8477,0.8469,0.8461,0.8456,0.845,0.8442,0.8435,0.8422,0.8418,0.8418,0.8398,0.839,0.8378,0.8377,0.8372,0.837,0.837,0.8365,0.8364,0.8364,0.8362,0.8361,0.8369,0.8369,0.8369,0.8369,0,0.8478,0.847,0.8465,0.8453,0.8447,0.8439,0.8431,0.8426,0.8422,0.8415,0.8405,0.8395,0.8384,0.8381,0.8377,0.8369,0.8369,0.8367,0.8365,0.8364,0.8362,0.8361,0.8369,0.8369,0.8369,0.8369,0,0,0.8475,0.8461,0.8459,0.8454,0.8443,0.8436,0.8428,0.8418,0.8414,0.8405,0.8398,0.8386,0.8384,0.8378,0.8372,0.8368,0.8365,0.8367,0.8366,0.8367,0.8356,0.8357,0.8357,0.8362,0.8362,0.8362,0.8357,0,0.8469,0.8455,0.8449,0.8438,0.8431,0.8426,0.8419,0.8411,0.8406,0.8398,0.8392,0.8383,0.8382,0.8378,0.8373,0.8366,0.8363,0.8367,0.8356,0.8355,0.8358,0.8356,0.8357,0.8352,0.8356,0.8356,0.8356,0,0.8459,0.8452,0.844,0.8431,0.8427,0.8421,0.8412,0.8405,0.8397,0.8393,0.8387,0.8382,0.8374,0.8374,0.8363,0.8366,0.8361,0.8357,0.8357,0.8355,0.8355,0.8353,0.8351,0.835,0.8355,0.8355,0.8355,0,0.8458,0.8445,0.8437,0.8433,0.8421,0.8417,0.8412,0.8404,0.8399,0.8391,0.8387,0.8379,0.8373,0.8367,0.836,0.8361,0.835,0.8349,0.8346,0.8346,0.8343,0.8343,0.8339,0.8341,0.8341,0.8341,0.8341,0,0.8452,0.8445,0.8436,0.8431,0.8423,0.8417,0.8409,0.8404,0.8397,0.839,0.8386,0.838,0.8371,0.8365,0.8359,0.8351,0.8349,0.8345,0.8344,0.8346,0.8346,0.8342,0.8342,0.8341,0.8341,0.8341,0.8341,0,0.8449,0.8443,0.8433,0.8424,0.8421,0.8416,0.8408,0.8403,0.8398,0.839,0.8387,0.8379,0.8371,0.8364,0.8353,0.8349,0.8341,0.8339,0.8344,0.8343,0.8341,0.8341,0.8333,0.8332,0.8335,0.8335,0.8335,0,0.8445,0.8439,0.843,0.8426,0.8421,0.8414,0.8409,0.8403,0.8398,0.8389,0.8385,0.8376,0.8369,0.8357,0.8349,0.8341,0.8339,0.8337,0.8338,0.834,0.8339,0.8339,0.8339,0.8337,0.8337,0.8337,0.8337,0,0.8438,0.8436,0.8429,0.8421,0.8416,0.8409,0.8403,0.84,0.8392,0.8387,0.8379,0.8374,0.8363,0.8355,0.8347,0.8341,0.8338,0.8337,0.8336,0.8337,0.834,0.8338,0.8344,0.8337,0.8337,0.8337,0.8337,0.8337,0.8434,0.8429,0.8422,0.8415,0.841,0.8404,0.8399,0.8394,0.8388,0.8379,0.8376,0.8368,0.836,0.8349,0.8344,0.8337,0.8337,0.8335,0.8334,0.8334,0.8334,0.8342,0.8336,0.8336,0.8336,0.8336,0.8336,0,0.8427,0.8423,0.8416,0.8408,0.8403,0.8401,0.8394,0.8389,0.8383,0.8376,0.837,0.8361,0.8354,0.8347,0.8339,0.8335,0.8334,0.8333,0.8333,0.8332,0.8335,0.8337,0.8335,0.8335,0.8335,0.8335,0.8335,0.8335,0.8423,0.8415,0.8412,0.8402,0.8398,0.839,0.8386,0.8381,0.8376,0.8367,0.8361,0.8357,0.8351,0.8343,0.8336,0.8334,0.8331,0.8331,0.8329,0.8332,0.8332,0.8332,0.8334,0.8331,0.8331,0.8327,0.8327,0.8327]},{"header":{"parameterUnit":"m.s-1","parameterCategory":1,"la1":30.2991,"la2":30.254,"lo1":-89.0895,"lo2":-89.0444,"dy":0.0017,"dx":0.0017,"nx":28,"ny":28,"refTime":"2025-01-07T03:00:00:Z","depth":0,"parameterNumber":3,"parameterNumberName":"V-component_of_WINDS"},"data":[0,0,0,0,0,0,0,0,0,0,0,0,0,0,0,0,0,0,0,0,0,0,0,0,0,0,0,0,0,0,0,0,0,0,0,0,0,0,0,0,0,0,0,0,0,0,0,0,0,0,0,0,0,0,0,0,0,0,-6.2575,-6.2577,0,-6.272,-6.2722,-6.2724,-6.2647,-6.2643,-6.2639,-6.2636,-6.278,-6.2787,-6.2795,0,0,0,0,0,0,0,0,0,0,0,0,0,-6.2228,-6.2234,-6.2575,-6.2577,-6.2579,-6.272,-6.2722,-6.2724,-6.2648,-6.2643,-6.2638,-6.2634,-6.2778,-6.2786,-6.2795,0,0,0,0,0,0,0,0,0,0,0,0,0,-6.2376,-6.2237,-6.2575,-6.2558,-6.2558,-6.272,-6.2722,-6.2725,-6.2649,-6.2643,-6.2637,-6.2632,-6.2775,-6.2786,-6.2797,-6.2982,0,0,-6.2831,-6.2836,0,0,0,0,0,0,0,0,-6.2368,-6.2389,-6.2559,-6.2559,-6.256,-6.266,-6.2652,-6.2811,-6.265,-6.2614,-6.2636,-6.2629,-6.2744,-6.2758,-6.2798,-6.2989,-6.2995,-6.2832,-6.2839,-6.2843,-6.2847,0,0,0,0,0,0,0,-6.2358,-6.2382,-6.2632,-6.2561,-6.2562,-6.2542,-6.2556,-6.2682,-6.271,-6.2617,-6.2612,-6.263,-6.2744,-6.2787,-6.28,-6.2997,-6.2832,-6.2841,-6.2848,-6.2853,-6.3347,-6.3353,0,0,0,0,0,0,-6.2349,-6.2374,-6.2628,-6.2637,-6.2448,-6.2553,-6.2569,-6.2633,-6.2709,-6.2714,-6.2635,-6.2626,-6.2771,-6.2787,-6.2805,-6.3027,-6.2843,-6.2854,-6.286,-6.3341,-6.3348,-6.3355,0,0,0,0,0,0,-6.2342,-6.2372,-6.2622,-6.2504,-6.2534,-6.2565,-6.2638,-6.2639,-6.2683,-6.2722,-6.2726,-6.2675,-6.2767,-6.2789,-6.2939,-6.3031,-6.2859,-6.2869,-6.3333,-6.3343,-6.3352,-6.3472,0,0,0,0,0,0,-6.2332,-6.237,-6.2442,-6.2507,-6.2541,-6.2755,-6.2643,-6.2646,-6.2703,-6.2693,-6.2761,-6.2766,-6.2764,-6.2923,-6.295,-6.3043,-6.2878,-6.3325,-6.3337,-6.3349,-6.346,-6.3485,-6.3506,0,0,0,0,0,-6.232,-6.2469,-6.2446,-6.2477,-6.2632,-6.276,-6.278,-6.2776,-6.2711,-6.2782,-6.2808,-6.2764,-6.3017,-6.2939,-6.2969,-6.3067,-6.3319,-6.3334,-6.3348,-6.345,-6.348,-6.3505,0,0,0,0,0,0,-6.2414,-6.2478,-6.2452,-6.2628,-6.2689,-6.2747,-6.2838,-6.2808,-6.2888,-6.2875,-6.2865,-6.2881,-6.3036,-6.3066,-6.2978,-6.325,-6.3157,-6.3179,-6.3225,-6.3254,-6.3276,-6.3265,-6.2887,0,0,0,0,0,-6.2455,-6.2556,-6.2605,-6.2755,-6.2787,-6.2808,-6.2863,-6.2855,-6.2918,-6.2943,-6.2979,-6.3041,-6.3134,-6.3195,-6.3283,-6.3464,-6.3477,-6.3546,-6.3569,-6.3588,-6.3606,-6.3703,-6.3734,-6.3403,-6.3402,-6.3402,0,0,-6.2541,-6.2588,-6.2652,-6.2775,-6.2822,-6.2925,-6.283,-6.2943,-6.3019,-6.296,-6.3103,-6.3132,-6.32,-6.3366,-6.3441,-6.3395,-6.37,-6.3606,-6.3621,-6.3629,-6.3721,-6.3752,-6.378,-6.3412,-6.3411,-6.3409,0,0,-6.275,-6.2797,-6.2926,-6.2975,-6.3048,-6.306,-6.3091,-6.3154,-6.3172,-6.3316,-6.3274,-6.3363,-6.3523,-6.3573,-6.362,-6.3848,-6.381,-6.3876,-6.3996,-6.409,-6.4117,-6.414,-6.422,-6.4249,-6.3895,-6.3895,-6.3895,0,-6.2847,-6.3002,-6.2996,-6.3113,-6.3168,-6.312,-6.3251,-6.3298,-6.3395,-6.3433,-6.3382,-6.3582,-6.3625,-6.3801,-6.3857,-6.3896,-6.393,-6.3869,-6.4114,-6.4137,-6.4158,-6.4235,-6.4265,-6.3902,-6.3902,-6.3901,-6.39,0,-6.3118,-6.3226,-6.3321,-6.3418,-6.3483,-6.3606,-6.3617,-6.3684,-6.367,-6.3687,-6.3834,-6.3883,-6.398,-6.4021,-6.4008,-6.4196,-6.4166,-6.4114,-6.4021,-6.4197,-6.4269,-6.4299,-6.3913,-6.3911,-6.3908,-6.3906,0,0,-6.339,-6.3482,-6.3517,-6.356,-6.3637,-6.3719,-6.3839,-6.3935,-6.3992,-6.4061,-6.416,-6.4297,-6.425,-6.4303,-6.4295,-6.4378,-6.4555,-6.4316,-6.4317,-6.4358,-6.4764,-6.4802,-6.4836,-6.453,-6.4536,-6.454,-6.4758,0,-6.3604,-6.3816,-6.3814,-6.4009,-6.4108,-6.4064,-6.4169,-6.4226,-6.4246,-6.4331,-6.4351,-6.4449,-6.438,-6.4411,-6.4492,-6.4516,-6.4636,-6.45,-6.4621,-6.4626,-6.4606,-6.4874,-6.4915,-6.5118,-6.4786,-6.4791,-6.4794,0,-6.3882,-6.3961,-6.4167,-6.4229,-6.427,-6.4364,-6.4452,-6.4535,-6.4598,-6.4606,-6.4666,-6.4644,-6.4764,-6.4668,-6.4833,-6.4741,-6.479,-6.481,-6.4817,-6.4828,-6.4721,-6.4891,-6.5183,-6.5213,-6.4839,-6.4835,-6.4832,0,-6.406,-6.4217,-6.4361,-6.4399,-6.4474,-6.4542,-6.4576,-6.4634,-6.4692,-6.4767,-6.4804,-6.4893,-6.4941,-6.501,-6.5012,-6.4942,-6.5178,-6.5082,-6.5187,-6.5187,-6.5239,-6.5235,-6.5542,-6.5272,-6.5271,-6.527,-6.527,0,-6.4299,-6.4426,-6.4441,-6.453,-6.4671,-6.4666,-6.4805,-6.4833,-6.4885,-6.4977,-6.4944,-6.503,-6.5028,-6.5116,-6.5118,-6.5254,-6.5276,-6.5285,-6.5284,-6.5288,-6.5287,-6.532,-6.5305,-6.5279,-6.5277,-6.5275,-6.5274,0,-6.4521,-6.4536,-6.469,-6.4749,-6.4767,-6.4868,-6.4918,-6.5001,-6.5017,-6.5134,-6.5161,-6.5186,-6.5287,-6.5296,-6.5413,-6.5415,-6.5579,-6.5563,-6.5558,-6.5555,-6.5659,-6.5649,-6.5997,-6.6042,-6.5743,-6.5746,-6.5748,0,-6.4672,-6.4769,-6.484,-6.4899,-6.4938,-6.5034,-6.5093,-6.5092,-6.5155,-6.5234,-6.5308,-6.5406,-6.5484,-6.5648,-6.5675,-6.5764,-6.575,-6.5866,-6.5763,-6.5764,-6.5751,-6.5745,-6.5754,-6.5885,-6.5889,-6.5891,-6.5893,0,-6.4939,-6.4942,-6.5029,-6.512,-6.5191,-6.5262,-6.5327,-6.5378,-6.5384,-6.5456,-6.556,-6.5621,-6.5741,-6.5839,-6.5926,-6.5959,-6.5928,-6.5926,-6.5955,-6.5959,-6.5952,-6.5957,-6.5612,-6.5918,-6.5915,-6.5913,-6.5912,-6.5911,-6.513,-6.5214,-6.5277,-6.5375,-6.5425,-6.5487,-6.5568,-6.5595,-6.5682,-6.5781,-6.5774,-6.5889,-6.5948,-6.6063,-6.6103,-6.6191,-6.6152,-6.6194,-6.6204,-6.6215,-6.6225,-6.5939,-6.6207,-6.6206,-6.6206,-6.6205,-6.6205,0,-6.5395,-6.5433,-6.5523,-6.5617,-6.5694,-6.5659,-6.573,-6.5796,-6.5898,-6.5957,-6.6035,-6.6154,-6.6248,-6.6284,-6.6375,-6.6439,-6.6427,-6.6463,-6.6458,-6.6466,-6.6255,-6.6221,-6.6472,-6.6472,-6.6472,-6.6471,-6.6471,-6.6471,-6.5542,-6.5682,-6.5692,-6.5857,-6.5893,-6.6006,-6.605,-6.6107,-6.6154,-6.6289,-6.6368,-6.639,-6.644,-6.6535,-6.6619,-6.6627,-6.6662,-6.6704,-6.6706,-6.6508,-6.6481,-6.6455,-6.6423,-6.6712,-6.6712,-6.6909,-6.6911,-6.6913]}]]